Regional Weather Roundup
Issued by NWS

Home | Current Version | Previous Version | Text Only | Print | Product List | Glossary Off
Versions: 1 2 3 4 5 6 7 8 9 10 11 12 13 14 15 16 17 18 19 20 21 22 23 24 25 26 27 28 29 30 31 32 33 34 35 36 37 38 39 40 41 42 43 44 45 46 47 48 49 50

000
ASUS44 KMEG 231400
RWRTN
TENNESSEE HOURLY STATE WEATHER ROUNDUP
NATIONAL WEATHER SERVICE MEMPHIS TN
900 AM CDT TUE AUG 23 2016

TNZ002-004-019-021-049-052-054-088>092-231500-
WEST TENNESSEE

CITY           SKY/WX    TMP DP  RH WIND       PRES   REMARKS
MEMPHIS INTL   CLOUDY    79  73  82 S6        30.22R
NWS MEMPHIS      N/A     75 N/A N/A MISG        N/A
JACKSON        MOSUNNY   75  69  81 S5        30.24R
DYERSBURG      PTSUNNY  N/A N/A N/A MISG        N/A
UNION CITY     CLOUDY    72  66  83 SE6       30.22S
PARIS          CLOUDY    66  63  88 SE6       30.26R
$$

TNZ008-025-027-028-033-062-065-066-231500-
NORTH MIDDLE TENNESSEE

CITY           SKY/WX    TMP DP  RH WIND       PRES   REMARKS
NASHVILLE      PTSUNNY   71  64  78 CALM      30.28R
CLARKSVILLE    MOSUNNY   71  64  78 SE5       30.26S
SMYRNA         MOSUNNY   70  64  83 MISG      30.29R
COOKEVILLE     SUNNY     73  64  73 CALM      30.29R
CROSSVILLE     SUNNY     70  59  68 VRB6      30.33R
$$

TNZ061-075-076-078-094-096-097-231500-
SOUTH MIDDLE TENNESSEE

CITY           SKY/WX    TMP DP  RH WIND       PRES   REMARKS
TULLAHOMA      SUNNY     72  63  73 CALM      30.31R
WINCHESTER     MOSUNNY   75  64  69 E3        30.29R
MCMINNVILLE    MOSUNNY   73  68  83 CALM      30.30R
COLUMBIA       CLOUDY   N/A N/A N/A CALM      30.26R
SHELBYVILLE    PTSUNNY   73  68  83 SE3       30.29R
$$

TNZ017-018-042-046-047-231500-
NORTHEAST TENNESSEE

CITY           SKY/WX    TMP DP  RH WIND       PRES   REMARKS
TRI CITIES     SUNNY     70  60  70 CALM      30.33R
$$

TNZ012-013-036-069-073-074-231500-
CENTRAL EAST TENNESSEE

CITY           SKY/WX    TMP DP  RH WIND       PRES   REMARKS
KNOXVILLE      PTSUNNY   71  63  75 VRB3      30.29R
OAK RIDGE      SUNNY     73  60  63 VRB5      30.31R
GATLINBURG     SUNNY     70  63  78 CALM      30.29S
$$

TNZ083-085-099-231500-
SOUTHEAST TENNESSEE

CITY           SKY/WX    TMP DP  RH WIND       PRES   REMARKS
CHATTANOOGA    PTSUNNY   74  63  68 CALM      30.29R
$$

SKY/WX REPORTED AS FAIR MEANS FEW OR NO CLOUDS BELOW
12 THOUSAND FEET.





USA.gov is the U.S. government's official web portal to all federal, state and local government web resources and services.